Miscellaneous Local Product
Issued by NWS Hastings, NE

Home | Current Version | Previous Version | Graphics & Text | Print | Product List | Glossary On
Versions: 1 2 3 4 5 6 7 8 9 10 11 12 13 14 15 16 17 18 19 20 21 22 23 24 25 26 27 28 29 30 31 32 33 34 35 36 37 38 39 40 41 42 43 44 45 46 47 48 49 50
832
AXUS43 KGID 221502
MISGRI

GID CWA HOURLY WEATHER ROUNDUP
NATIONAL WEATHER SERVICE HASTINGS NE
1000 AM CDT MON AUG 22 2016

NOTE: "FAIR" INDICATES FEW OR NO CLOUDS BELOW 12,000 FEET WITH NO
SIGNIFICANT WEATHER AND/OR OBSTRUCTIONS TO VISIBILITY.

...SOUTH CENTRAL NEBRASKA...

CITY           SKY/WX    TMP DP  RH WIND       PRES   REMARKS
GRAND ISLAND   SUNNY     74  55  51 S21G28    29.97F
HASTINGS       SUNNY     74  55  51 S14G25    30.00F
KEARNEY        SUNNY     72  55  56 S17G26    29.97S
ORD            SUNNY     72  54  53 S17G24    29.92F
YORK           SUNNY     72  55  56 S15G23    30.01S
AURORA         SUNNY     72  54  53 S17G25    29.99F
LEXINGTON      SUNNY     73  58  60 S18       29.94F
HOLDREGE       SUNNY     73  54  51 S15G24    29.97F
HEBRON         SUNNY     72  56  57 S16       30.04S

...NEBRASKA PANHANDLE...

CITY           SKY/WX    TMP DP  RH WIND       PRES   REMARKS
CHADRON        CLOUDY    79  48  33 S7        29.80S
ALLIANCE       CLOUDY    71  59  65 S8        29.87S
SCOTTSBLUFF    CLOUDY    68  58  70 E3        29.88S
SIDNEY         SUNNY     74  54  49 SW13      29.93S

...WESTERN AND NORTH CENTRAL NEBRASKA...

CITY           SKY/WX    TMP DP  RH WIND       PRES   REMARKS
VALENTINE      SUNNY     74  57  55 S17       29.83F
AINSWORTH      SUNNY     73  60  63 S15G24    29.85F
ONEILL         SUNNY     75  55  51 S17G24    29.88F
BROKEN BOW     SUNNY     71  59  65 S16G24    29.92F
IMPERIAL       CLOUDY    71  56  58 S17       29.92F
NORTH PLATTE   SUNNY     73  60  63 S15       29.91F
MCCOOK         SUNNY     76  59  55 SW16      29.94F

...EASTERN NEBRASKA...

CITY           SKY/WX    TMP DP  RH WIND       PRES   REMARKS
NORFOLK        SUNNY     73  54  51 S21G30    29.94F
SO SIOUX CITY  SUNNY     74  57  55 S17G25    29.96F
TEKAMAH        SUNNY     72  58  61 S16       30.01S
COLUMBUS       SUNNY     72  54  53 S13G18    29.99S
ALBION         SUNNY     72  55  56 S16       29.95F
OMAHA EPPLEY   MOSUNNY   74  56  53 S18       30.04S
OFFUTT AFB     SUNNY     73  58  60 S17       30.04F
MILLARD        SUNNY     73  58  59 S8G16     30.04S
LINCOLN        SUNNY     75  55  49 S21G28    30.03F
NEBRASKA CITY  SUNNY     72  57  60 S17       30.08S
BEATRICE       SUNNY     73  57  57 S14G20    30.06F
FALLS CITY     SUNNY     73  58  59 S15G21    30.10S

...NORTHERN KANSAS...

CITY           SKY/WX    TMP DP  RH WIND       PRES   REMARKS
GOODLAND       SUNNY     72  57  59 S18G28    29.97F
HILL CITY      SUNNY     74  59  59 S18G25    30.00F
NORTON         SUNNY     75  54  46 S16G22    29.96F
SMITH CENTER   SUNNY     75  54  46 S16G25    30.01F
BELOIT         SUNNY     72  55  56 S15G24    30.03S
HAYS           SUNNY     75  50  41 S20G25    30.04S
RUSSELL        SUNNY     75  52  44 S21G29    30.03F
CONCORDIA      SUNNY     73  54  51 S21G33    30.05F
SALINA         SUNNY     77  54  44 S16       30.08S
TOPEKA         SUNNY     73  59  61 S9        30.13R



USA.gov is the U.S. government's official web portal to all federal, state and local government web resources and services.